Regional Weather Roundup
Issued by NWS

Home | Current Version | Previous Version | Graphics & Text | Print | Product List | Glossary On
Versions: 1 2 3 4 5 6 7 8 9 10 11 12 13 14 15 16 17 18 19 20 21 22 23 24 25 26 27 28 29 30 31 32 33 34 35 36 37 38 39 40 41 42 43 44 45 46 47 48 49 50
053
ASUS43 KFSD 271710
RWRSD

WEATHER ROUNDUP FOR SOUTH DAKOTA
NATIONAL WEATHER SERVICE SIOUX FALLS SD
1200 PM CDT WED JUL 27 2016

NOTE: "FAIR" INDICATES FEW OR NO CLOUDS BELOW 12,000 FEET WITH NO
SIGNIFICANT WEATHER AND/OR OBSTRUCTIONS TO VISIBILITY.


SDZ001>005-009-010-012>017-271800-
NORTHWEST AND NORTH CENTRAL SOUTH DAKOTA

CITY           SKY/WX    TMP DP  RH WIND       PRES   REMARKS
BUFFALO          N/A     71  62  73 VRB7      30.10R
FAITH            N/A     74  61  63 NE12      30.11R
MOBRIDGE       CLOUDY    75  62  64 N7        30.07F
$$

SDZ012>016-024>037-041>051-057-063-072>074-271800-
SOUTHWEST AND SOUTH CENTRAL SOUTH DAKOTA

CITY           SKY/WX    TMP DP  RH WIND       PRES   REMARKS
RAPID CTY ARPT CLOUDY    76  62  62 E9        30.10R
PIERRE         SUNNY     82  63  52 NE16G24   30.04S
CUSTER         CLOUDY    72  50  45 W6        30.23R
ELLSWORTH AFB  CLOUDY    74  65  73 NE10      30.11R
PINE RIDGE     CLOUDY    73  59  61 CALM      30.11R
WINNER         FAIR      84  66  54 N5        30.05S
$$

SDZ004>011-016>023-039-040-271800-
NORTHEAST SOUTH DAKOTA

CITY           SKY/WX    TMP DP  RH WIND       PRES   REMARKS
ABERDEEN       MOSUNNY   75  65  70 N12       30.06R
WATERTOWN      MOSUNNY   78  64  61 N10       30.04S
BROOKINGS      PTSUNNY   74  65  73 N12       30.03R
SISSETON         N/A     75  64  68 N12       30.03R
$$

SDZ017-020-022-023-036>040-048>070-271800-
SOUTHEAST SOUTH DAKOTA

CITY           SKY/WX    TMP DP  RH WIND       PRES   REMARKS
SIOUX FALLS    PTSUNNY   82  69  64 W9        30.02R
HURON          MOSUNNY   78  65  63 N15       30.04R
CHAMBERLAIN    SUNNY     81  67  61 NE7       30.03S
MITCHELL       MOSUNNY   81  68  64 N12       30.03R
YANKTON        SUNNY     81  61  50 W8        30.00F
$$

ABBREVIATIONS USED IN REMARKS
   TC - TEMPERATURE IN CELSIUS
  WCI - WIND CHILL INDEX
   HX - HEAT INDEX
  VSB - VISIBILITY





USA.gov is the U.S. government's official web portal to all federal, state and local government web resources and services.